Location: Mentone
(34.5413°N, 85.5351°W)
Time: 23:31:46
(UTC-05:00)

Tiros 1 despin weight - All Passes

Search period start: 21 April 2018 00:00
Search period end: 01 May 2018 00:00
Orbit: 595 x 643 km, 48.2° (Epoch: 21 April)

Date Brightness Start Highest point End Pass type
(mag) Time Alt. Az. Time Alt. Az. Time Alt. Az.
21 Apr - 00:04:02 10° NNW 00:06:34 15° N 00:09:08 10° NE visible
21 Apr - 01:45:16 10° NW 01:49:17 30° NNE 01:53:20 10° E night (unlit)
21 Apr - 03:26:34 10° WNW 03:31:04 57° SW 03:35:37 10° SE visible
21 Apr - 19:12:25 10° SSW 19:16:37 46° SE 19:20:53 10° ENE daylight
21 Apr - 20:54:17 10° W 20:58:17 32° NNW 21:02:20 10° NE visible
21 Apr - 22:38:21 10° NW 22:40:56 15° N 22:43:32 10° NNE visible
22 Apr - 00:20:53 10° NNW 00:23:55 17° NNE 00:26:59 10° NE visible
22 Apr - 02:01:52 10° NW 02:06:18 50° NNE 02:10:48 10° ESE night (unlit)
22 Apr - 03:43:49 10° WNW 03:47:42 27° SW 03:51:37 10° S night (unlit)
22 Apr - 17:50:08 10° SSE 17:52:19 14° SE 17:54:30 10° E daylight
22 Apr - 19:28:57 10° SW 19:33:22 84° NW 19:37:50 10° NE daylight
22 Apr - 21:11:59 10° WNW 21:15:26 22° NNW 21:18:54 10° NNE visible
22 Apr - 22:55:56 10° NNW 22:58:19 14° N 23:00:44 10° NNE visible
23 Apr - 00:37:30 10° NNW 00:41:10 24° NNE 00:44:53 10° ENE night (unlit)
23 Apr - 02:18:36 10° NW 02:23:10 86° SW 02:27:48 10° SE night (unlit)
23 Apr - 04:02:15 10° WSW 04:04:13 13° SW 04:06:12 10° SSW night (unlit)
23 Apr - 18:05:01 10° SSW 18:08:50 30° SE 18:12:41 10° ENE daylight
23 Apr - 19:46:02 10° WSW 19:50:15 44° NNW 19:54:32 10° NE visible
23 Apr - 21:29:53 10° NW 21:32:43 16° NNW 21:35:33 10° NNE visible
23 Apr - 23:13:01 10° NNW 23:15:43 15° N 23:18:25 10° NE visible
24 Apr - 00:54:05 10° NW 00:58:17 36° NNE 01:02:31 10° E night (unlit)
24 Apr - 02:35:36 10° WNW 02:39:53 41° SW 02:44:14 10° SSE night (unlit)
24 Apr - 18:21:07 10° SW 18:25:29 65° SE 18:29:53 10° ENE daylight
24 Apr - 20:03:33 10° W 20:07:19 26° NNW 20:11:06 10° NE visible
24 Apr - 21:47:40 10° NW 21:50:04 14° N 21:52:29 10° NNE visible
24 Apr - 23:29:44 10° NNW 23:33:01 19° NNE 23:36:20 10° ENE visible
25 Apr - 01:10:43 10° NW 01:15:13 65° NE 01:19:48 10° ESE night (unlit)
25 Apr - 02:53:11 10° W 02:56:28 20° SW 02:59:47 10° S night (unlit)
25 Apr - 16:57:56 10° S 17:01:04 19° SE 17:04:13 10° E daylight
25 Apr - 18:37:55 10° WSW 18:42:17 62° NW 18:46:41 10° NE daylight
25 Apr - 20:21:22 10° WNW 20:24:31 19° NNW 20:27:41 10° NNE visible
25 Apr - 22:05:03 10° NNW 22:07:28 14° N 22:09:55 10° NE visible
25 Apr - 23:46:19 10° NW 23:50:12 28° NNE 23:54:08 10° E visible
26 Apr - 01:27:32 10° WNW 01:32:01 63° SW 01:36:34 10° SE night (unlit)
26 Apr - 17:13:30 10° SSW 17:17:39 41° SE 17:21:49 10° ENE daylight
26 Apr - 18:55:13 10° W 18:59:15 34° NNW 19:03:19 10° NE daylight
26 Apr - 20:39:16 10° NW 20:41:51 15° N 20:44:25 10° NNE visible
26 Apr - 22:21:56 10° NNW 22:24:50 17° NNE 22:27:45 10° NE visible
27 Apr - 00:02:54 10° NW 00:07:14 46° NNE 00:11:38 10° ESE visible
27 Apr - 01:44:44 10° WNW 01:48:41 29° SW 01:52:40 10° SSE night (unlit)
27 Apr - 15:51:36 10° SSE 15:53:21 12° SE 15:55:06 10° ESE daylight
27 Apr - 17:29:58 10° SW 17:34:22 89° SE 17:38:48 10° NE daylight
27 Apr - 19:12:53 10° WNW 19:16:22 22° NNW 19:19:53 10° NNE daylight
27 Apr - 20:56:55 10° NNW 20:59:14 14° N 21:01:33 10° NNE visible
27 Apr - 22:38:33 10° NNW 22:42:05 22° NNE 22:45:38 10° ENE visible
28 Apr - 00:19:36 10° NW 00:24:07 87° NE 00:28:42 10° SE visible
28 Apr - 02:02:54 10° W 02:05:13 14° SW 02:07:31 10° SSW night (unlit)
28 Apr - 16:06:08 10° S 16:09:51 27° SE 16:13:35 10° ENE daylight
28 Apr - 17:46:59 10° WSW 17:51:14 47° NNW 17:55:31 10° NE daylight
28 Apr - 19:30:46 10° NW 19:33:37 17° NNW 19:36:30 10° NNE daylight
28 Apr - 21:14:02 10° NNW 21:16:37 15° N 21:19:11 10° NE visible
28 Apr - 22:55:07 10° NW 22:59:13 34° NNE 23:03:20 10° E visible
29 Apr - 00:36:33 10° WNW 00:40:51 45° SW 00:45:13 10° SSE night (unlit)
29 Apr - 16:22:10 10° SW 16:26:29 59° SE 16:30:50 10° ENE daylight
29 Apr - 18:04:27 10° W 18:08:16 28° NNW 18:12:05 10° NE daylight
29 Apr - 19:48:36 10° NW 19:50:59 14° N 19:53:21 10° NNE visible
29 Apr - 21:30:47 10° NNW 21:33:55 18° NNE 21:37:05 10° ENE visible
29 Apr - 23:11:44 10° NW 23:16:11 60° NE 23:20:39 10° ESE visible
30 Apr - 00:54:02 10° W 00:57:27 21° SW 01:00:54 10° S night (unlit)
30 Apr - 14:59:09 10° S 15:02:06 18° SE 15:05:02 10° E daylight
30 Apr - 16:38:53 10° WSW 16:43:16 68° NW 16:47:40 10° NE daylight
30 Apr - 18:22:14 10° WNW 18:25:26 19° NNW 18:28:40 10° NNE daylight
30 Apr - 20:06:02 10° NNW 20:08:22 14° N 20:10:42 10° NE visible
30 Apr - 21:47:22 10° NW 21:51:08 26° NNE 21:54:56 10° E visible
30 Apr - 23:28:31 10° WNW 23:32:59 69° SW 23:37:30 10° SE visible
